Regional Weather Roundup
Issued by NWS Albany, NY

Home | Current Version | Previous Version | Text Only | Print | Product List | Glossary On
Versions: 1 2 3 4 5 6 7 8 9 10 11 12 13 14 15 16 17 18 19 20 21 22 23 24 25 26 27 28 29 30 31 32 33 34 35 36 37 38 39 40 41 42 43 44 45 46 47 48 49 50
000
ASUS41 KALY 260810
RWRALY

NEW YORK STATE HOURLY WEATHER ROUNDUP
NATIONAL WEATHER SERVICE ALBANY NY
400 AM EDT SUN APR 26 2015

NOTE: "FAIR" INDICATES FEW OR NO CLOUDS BELOW 12,000 FEET WITH NO
SIGNIFICANT WEATHER AND/OR NO OBSTRUCTIONS TO VISIBILITY.

NYZ032-033-038>043-046>054-057>066-NYZ062>081-260900-
EAST


CITY           SKY/WX    TMP DP  RH WIND       PRES   REMARKS
ALBANY         CLOUDY    42  29  59 W5        29.71F
GLENS FALLS    CLOUDY    45  30  55 N6        29.69F
POUGHKEEPSIE   CLEAR     33  28  81 CALM      29.69S
NEWBURGH       CLEAR     34  30  86 CALM      29.70S
MONTGOMERY     CLEAR     32  27  81 CALM      29.68S
WHITE PLAINS   CLEAR     42  26  53 N6        29.66S
ISLIP          PTCLDY    40  31  70 NE9       29.65S WCI  34
NEW YORK CITY  MOCLDY    46  33  60 NE6       29.67S
CENTRAL PARK   CLEAR     47  27  45 NE5       29.69F
$$

NYZ005>009-017-018-044>046-055-056-260900-
CENTRAL


CITY           SKY/WX    TMP DP  RH WIND       PRES   REMARKS
FULTON         CLOUDY    38  29  70 NW3       29.75S
SYRACUSE       CLOUDY    33  27  78 S5        29.75S WCI  29
ROME           MOCLDY    30  27  88 CALM      29.75F
ELMIRA         CLEAR     26  23  88 CALM      29.74S
BINGHAMTON     CLEAR     32  25  75 N8        29.69F WCI  25
MONTICELLO     CLEAR     34  25  69 NW3       29.68F
$$

NYZ026>034-041>043-260900-
NORTH


CITY           SKY/WX    TMP DP  RH WIND       PRES   REMARKS
WATERTOWN      CLEAR     30  27  88 CALM      29.76S
FORT DRUM      NOT AVBL
MASSENA        CLOUDY    39  30  70 NW5       29.75F
SARANAC LAKE   PTCLDY    30  27  88 CALM      29.68F
PLATTSBURGH    CLOUDY    44  32  62 N8        29.71F
$$

NYZ001>004-010>016-019>021-260900-
WEST


CITY           SKY/WX    TMP DP  RH WIND       PRES   REMARKS
NIAGARA FALLS  CLEAR     35  27  72 N7        29.77S WCI  29
BUFFALO        PTCLDY    35  26  69 CALM      29.77S
DUNKIRK        CLEAR     28  25  88 CALM      29.78S
JAMESTOWN      CLEAR     34  21  60 N5        29.74R WCI  30
WELLSVILLE     CLEAR     31  24  75 N5        29.73R WCI  26
ROCHESTER      CLOUDY    33  29  85 CALM      29.77S
PENN YAN       CLOUDY    33  29  85 CALM      29.75S
$$

             KEY
       WCI = WIND CHILL INDEX
       VSB = VISIBILITY
       HX  = HEAT INDEX
$$



USA.gov is the U.S. government's official web portal to all federal, state and local government web resources and services.